Woodberry Forest, VA

9:55 PM EST on February 09, 2016 (GMT -0500)
Orange County

Weather History for KOMH - November, 2011

Change the Weather History Date:

Sunday, November 20, 2011

  Actual Average Record
Temperature  
Mean Temperature 58 °F -  
Max Temperature 68 °F 55 °F 74 °F (1985)
Min Temperature 48 °F 34 °F 20 °F (1951)
Degree Days  
Heating Degree Days 7    
Growing Degree Days 8 (Base 50)    
Moisture  
Dew Point 49 °F    
Average Humidity 71    
Maximum Humidity 87    
Minimum Humidity 60    
Precipitation  
Precipitation 0.00 in - - ()
Sea Level Pressure  
Sea Level Pressure 30.24 in    
Wind  
Wind Speed 7 mph (South)    
Max Wind Speed 12 mph    
Max Gust Speed 17 mph    
Visibility 10 miles    
Events      
Averages and records for this station are not official NWS values.
T = Trace of Precipitation, MM = Missing Value Source: NWS Daily Summary

Daily Weather History Graph

Daily Weather History Graph

Search for Another Location

Airport or City:

Trip Planner

Search our weather history database for the weather conditions in past years. The results will help you decide how hot, cold, wet, or windy it might be!

Date:

Astronomy

Nov. 20, 2011 Rise Set
Actual Time 6:58 AM EST 4:56 PM EST
Civil Twilight 6:30 AM EST 5:25 PM EST
Nautical Twilight 5:57 AM EST 5:57 PM EST
Astronomical Twilight 5:26 AM EST 6:28 PM EST
Moon 1:28 AM EST (11/20) 1:41 PM EST (11/20)
Length of Visible Light 10h 55m
Length of Day
9h 58m
Waning Crescent, 27% of the Moon is Illuminated
Nov 20
Waning Crescent
Nov 25
New
Dec 2
First Quarter
Dec 10
Full
Dec 17
Last Quarter

Hourly Weather History & Observations

Time (EST) Temp. Dew Point Humidity Pressure Visibility Wind Dir Wind Speed Gust Speed Precip Events Conditions
12:15 AM 48.2 °F 37.4 °F 66% 30.29 in 10.0 mi South 5.8 mph - N/A   Clear
12:35 AM 48.2 °F 37.4 °F 66% 30.28 in 10.0 mi South 5.8 mph - N/A   Clear
12:55 AM 48.2 °F 37.4 °F 66% 30.28 in 10.0 mi South 5.8 mph - N/A   Clear
1:15 AM 48.2 °F 39.2 °F 71% 30.27 in 10.0 mi South 8.1 mph - N/A   Clear
1:35 AM 50.0 °F 39.2 °F 66% 30.28 in 10.0 mi South 10.4 mph 16.1 mph N/A   Clear
1:55 AM 50.0 °F 39.2 °F 66% 30.27 in 10.0 mi South 8.1 mph - N/A   Clear
2:15 AM 50.0 °F 41.0 °F 71% 30.27 in 10.0 mi South 8.1 mph - N/A   Clear
2:35 AM 50.0 °F 41.0 °F 71% 30.27 in 10.0 mi South 6.9 mph - N/A   Clear
2:55 AM 48.2 °F 41.0 °F 76% 30.26 in 10.0 mi SSE 9.2 mph - N/A   Clear
3:15 AM 50.0 °F 41.0 °F 71% 30.26 in 10.0 mi South 10.4 mph - N/A   Clear
3:35 AM 50.0 °F 42.8 °F 76% 30.26 in 10.0 mi South 9.2 mph - N/A   Clear
3:55 AM 50.0 °F 42.8 °F 76% 30.25 in 10.0 mi South 6.9 mph - N/A   Clear
4:15 AM 50.0 °F 42.8 °F 76% 30.26 in 10.0 mi South 5.8 mph - N/A   Clear
4:35 AM 48.2 °F 42.8 °F 82% 30.26 in 10.0 mi South 5.8 mph - N/A   Clear
4:55 AM 48.2 °F 42.8 °F 82% 30.25 in 10.0 mi SSE 9.2 mph - N/A   Clear
5:15 AM 50.0 °F 42.8 °F 76% 30.25 in 10.0 mi SSE 8.1 mph - N/A   Clear
5:35 AM 48.2 °F 42.8 °F 82% 30.25 in 10.0 mi South 3.5 mph - N/A   Clear
5:55 AM 50.0 °F 44.6 °F 82% 30.25 in 10.0 mi SSE 5.8 mph - N/A   Clear
6:35 AM 50.0 °F 44.6 °F 82% 30.25 in 10.0 mi South 9.2 mph - N/A   Clear
6:55 AM 50.0 °F 46.4 °F 87% 30.26 in 10.0 mi South 11.5 mph 17.3 mph N/A   Clear
7:35 AM 51.8 °F 46.4 °F 82% 30.26 in 10.0 mi South 9.2 mph - N/A   Clear
7:55 AM 53.6 °F 46.4 °F 77% 30.27 in 10.0 mi South 6.9 mph - N/A   Clear
8:15 AM 53.6 °F 48.2 °F 82% 30.27 in 10.0 mi South 8.1 mph - N/A   Clear
8:55 AM 59.0 °F 50.0 °F 72% 30.26 in 10.0 mi SSW 6.9 mph - N/A   Clear
9:15 AM 59.0 °F 50.0 °F 72% 30.27 in 10.0 mi Calm Calm - N/A   Clear
9:55 AM 62.6 °F 51.8 °F 68% 30.27 in 10.0 mi South 8.1 mph - N/A   Clear
10:15 AM 62.6 °F 51.8 °F 68% 30.26 in 10.0 mi South 9.2 mph 17.3 mph N/A   Clear
10:35 AM 62.6 °F 51.8 °F 68% 30.27 in 10.0 mi South 9.2 mph - N/A   Clear
10:55 AM 62.6 °F 51.8 °F 68% 30.27 in 10.0 mi SSW 8.1 mph - N/A   Clear
11:15 AM 64.4 °F 51.8 °F 64% 30.27 in 10.0 mi SSW 6.9 mph - N/A   Clear
11:35 AM 64.4 °F 53.6 °F 68% 30.25 in 10.0 mi South 8.1 mph - N/A   Clear
11:55 AM 64.4 °F 53.6 °F 68% 30.24 in 10.0 mi SSW 8.1 mph - N/A   Clear
12:15 PM 66.2 °F 53.6 °F 64% 30.24 in 10.0 mi South 8.1 mph - N/A   Clear
12:35 PM 66.2 °F 53.6 °F 64% 30.24 in 10.0 mi SSW 10.4 mph - N/A   Clear
1:15 PM 66.2 °F 53.6 °F 64% 30.22 in 10.0 mi South 10.4 mph - N/A   Clear
1:55 PM 68.0 °F 53.6 °F 60% 30.21 in 10.0 mi SSW 4.6 mph - N/A   Clear
2:15 PM 68.0 °F 53.6 °F 60% 30.21 in 10.0 mi South 9.2 mph - N/A   Clear
2:35 PM 68.0 °F 53.6 °F 60% 30.21 in 10.0 mi South 9.2 mph - N/A   Scattered Clouds
2:55 PM 68.0 °F 53.6 °F 60% 30.21 in 10.0 mi South 6.9 mph - N/A   Mostly Cloudy
3:15 PM 68.0 °F 53.6 °F 60% 30.21 in 10.0 mi South 6.9 mph - N/A   Overcast
3:35 PM 68.0 °F 53.6 °F 60% 30.21 in 10.0 mi South 3.5 mph - N/A   Scattered Clouds
3:55 PM 68.0 °F 53.6 °F 60% 30.21 in 10.0 mi Calm Calm - N/A   Clear
4:15 PM 68.0 °F 53.6 °F 60% 30.20 in 10.0 mi SE 4.6 mph - N/A   Mostly Cloudy
4:35 PM 66.2 °F 53.6 °F 64% 30.20 in 10.0 mi SSE 3.5 mph - N/A   Mostly Cloudy
4:55 PM 66.2 °F 53.6 °F 64% 30.21 in 10.0 mi Calm Calm - N/A   Scattered Clouds
5:15 PM 64.4 °F 53.6 °F 68% 30.21 in 10.0 mi SE 5.8 mph - N/A   Mostly Cloudy
5:35 PM 64.4 °F 53.6 °F 68% 30.21 in 10.0 mi SE 3.5 mph - N/A   Mostly Cloudy
5:55 PM 64.4 °F 55.4 °F 73% 30.21 in 10.0 mi SSE 5.8 mph - N/A   Scattered Clouds
6:15 PM 64.4 °F 55.4 °F 73% 30.21 in 10.0 mi SSE 5.8 mph - N/A   Clear
6:35 PM 64.4 °F 55.4 °F 73% 30.20 in 10.0 mi South 4.6 mph - N/A   Clear
6:55 PM 62.6 °F 55.4 °F 77% 30.21 in 10.0 mi South 4.6 mph - N/A   Clear
7:15 PM 62.6 °F 55.4 °F 77% 30.21 in 10.0 mi South 4.6 mph - N/A   Mostly Cloudy
7:35 PM 62.6 °F 55.4 °F 77% 30.21 in 10.0 mi South 5.8 mph - N/A   Mostly Cloudy
7:55 PM 62.6 °F 55.4 °F 77% 30.20 in 10.0 mi South 5.8 mph - N/A   Mostly Cloudy
8:15 PM 64.4 °F 55.4 °F 73% 30.20 in 10.0 mi South 5.8 mph - N/A   Overcast
8:35 PM 62.6 °F 55.4 °F 77% 30.19 in 10.0 mi South 5.8 mph - N/A   Overcast
8:55 PM 62.6 °F 55.4 °F 77% 30.19 in 10.0 mi SSW 3.5 mph - N/A   Overcast
9:15 PM 62.6 °F 55.4 °F 77% 30.18 in 10.0 mi South 4.6 mph - N/A   Overcast
9:35 PM 62.6 °F 55.4 °F 77% 30.17 in 10.0 mi South 4.6 mph - N/A   Overcast
9:55 PM 60.8 °F 55.4 °F 82% 30.18 in 10.0 mi Calm Calm - N/A   Overcast
10:15 PM 62.6 °F 55.4 °F 77% 30.17 in 10.0 mi Calm Calm - N/A   Overcast
10:35 PM 60.8 °F 55.4 °F 82% 30.16 in 10.0 mi Calm Calm - N/A   Overcast
10:55 PM 60.8 °F 55.4 °F 82% 30.16 in 10.0 mi SSE 3.5 mph - N/A   Overcast
11:15 PM 60.8 °F 55.4 °F 82% 30.16 in 10.0 mi Calm Calm - N/A   Overcast
11:35 PM 60.8 °F 55.4 °F 82% 30.16 in 10.0 mi Calm Calm - N/A   Overcast
11:55 PM 60.8 °F 55.4 °F 82% 30.15 in 10.0 mi Calm Calm - N/A   Overcast